軌道要素
Epoch 2002 July 25.0 TT = JDT 2452480.5
T 2002 July 31.17985 TT MPC
q 1.7294654 (2000.0) P Q
n 0.15362117 Peri. 115.24561 +0.56152065 +0.82742688
a 3.4527782 Node 188.92739 -0.77591958 +0.52328688
e 0.4991090 Incl. 2.84462 -0.28747760 +0.20380282
P 6.42
From 594 observations 1995 May 23-2009 Nov. 24, mean residual 0".9.
Nongravitational parameters A1 = +1.48, A2 = +0.0025.
|